リニア彗星

C/2002 C2 ( LINEAR )

English version
Home page
Updated on January 24, 2003

---------------------------------------------------------------------

・ プロフィール

発見日 2002年2月1日
発見光度 17.8等
発見者 Lincoln Laboratory Near-Earth Asteroid Research project

・ 軌道要素

Epoch 2002 Mar. 27.0 TT = JDT 2452360.5
T 2002 Apr. 10.79653 TT                                 MPC
q   3.2538275            (2000.0)            P               Q
z  +0.0000629      Peri.  159.92935     +0.34856287     +0.37090229
 +/-0.0000168      Node   242.95563     +0.67237431     +0.54088026
e   0.9997953      Incl.  104.88280     +0.65300590     -0.75490399

・ 星図

・ 光度変化

        m1 = 9.0 + 5 logΔ + 10.0 log r

---------------------------------------------------------------------

軌道要素はM.P.E.C. 2002-S08に掲載されたものです。
星図は StellaNavigator Ver.2.0 for Windows (アストロアーツ 編著 / アスキー出版局刊) で作成したものです。
光度グラフはComet for Windowsで作成したものです。

---------------------------------------------------------------------

Copyright(C) Seiichi Yoshida (comet@aerith.net). All rights reserved.